When you browse on this site, cookies collect data to enhance your experience and personalize the content and advertising you see.
Visit our Privacy Policy to learn more. By continuing to use the site, you agree to this use of cookies and data.
  • în România
  • Lista ţărilor
  • Pe 7 zile
  • Temperatura apei
  • Meteo pe hartă
  • Widget-uri
  • user-avatar
    Intrare

    Meteo pe oră la Ischgl

    Astăzi, 15 Septembrie, Duminică

    Timp Temperatura Precipitaţii Vânt Presiune Umiditate
    00:00 +7°C° 0 mm 1 m/s 582 mmHg 90%
    01:00 +7°C° 0 mm 1 m/s 582 mmHg 89%
    02:00 +5°C° 0 mm 0 m/s 581 mmHg 88%
    03:00 +5°C° 0 mm 0 m/s 581 mmHg 87%
    04:00 +5°C° 0 mm 0 m/s 581 mmHg 86%
    05:00 +5°C° 0 mm 0 m/s 581 mmHg 84%
    06:00 +6°C° 0 mm 0 m/s 581 mmHg 82%
    07:00 +8°C° 0 mm 0 m/s 583 mmHg 86%
    08:00 +10°C° 0 mm 0 m/s 584 mmHg 72%
    09:00 +13°C° 0 mm 0 m/s 584 mmHg 59%
    10:00 +15°C° 0 mm 0 m/s 585 mmHg 46%
    11:00 +16°C° 0 mm 1 m/s 586 mmHg 43%
    12:00 +18°C° 0 mm 1 m/s 586 mmHg 41%
    13:00 +19°C° 0 mm 1 m/s 586 mmHg 39%
    14:00 +18°C° 0 mm 2 m/s 586 mmHg 41%
    15:00 +17°C° 0 mm 2 m/s 585 mmHg 44%
    16:00 +17°C° 0 mm 2 m/s 585 mmHg 46%
    17:00 +14°C° 0 mm 2 m/s 583 mmHg 59%
    18:00 +12°C° 0 mm 1 m/s 582 mmHg 72%
    19:00 +9°C° 0 mm 1 m/s 580 mmHg 85%
    20:00 +8°C° 0 mm 1 m/s 580 mmHg 87%
    21:00 +7°C° 0 mm 0 m/s 580 mmHg 89%
    22:00 +6°C° 0 mm 0 m/s 580 mmHg 91%
    23:00 +6°C° 0 mm 0 m/s 579 mmHg 90%

    Mâine, 16 Septembrie, Luni

    Timp Temperatura Precipitaţii Vânt Presiune Umiditate
    00:00 +6°C° 0 mm 0 m/s 579 mmHg 90%
    01:00 +5°C° 0 mm 0 m/s 579 mmHg 90%
    02:00 +6°C° 0 mm 1 m/s 579 mmHg 89%
    03:00 +6°C° 0 mm 1 m/s 578 mmHg 88%
    04:00 +6°C° 0 mm 1 m/s 578 mmHg 86%
    05:00 +7°C° 0 mm 1 m/s 578 mmHg 84%
    06:00 +7°C° 0 mm 1 m/s 579 mmHg 81%
    07:00 +8°C° 0 mm 1 m/s 579 mmHg 78%
    08:00 +10°C° 0 mm 1 m/s 580 mmHg 69%
    09:00 +13°C° 0 mm 1 m/s 581 mmHg 60%
    10:00 +15°C° 0 mm 1 m/s 582 mmHg 51%
    11:00 +15°C° 0 mm 1 m/s 582 mmHg 49%
    12:00 +16°C° 0 mm 2 m/s 582 mmHg 48%
    13:00 +17°C° 0 mm 2 m/s 582 mmHg 46%
    14:00 +17°C° 0 mm 2 m/s 582 mmHg 47%
    15:00 +16°C° 0 mm 2 m/s 582 mmHg 49%
    16:00 +16°C° 0 mm 2 m/s 581 mmHg 50%
    17:00 +14°C° 0.1 mm 2 m/s 580 mmHg 62%
    18:00 +11°C° 0.1 mm 1 m/s 579 mmHg 75%
    19:00 +9°C° 0.1 mm 1 m/s 578 mmHg 87%
    20:00 +8°C° 0 mm 1 m/s 577 mmHg 88%
    21:00 +8°C° 0 mm 1 m/s 577 mmHg 89%
    22:00 +7°C° 0 mm 1 m/s 577 mmHg 91%
    23:00 +7°C° 0 mm 1 m/s 577 mmHg 91%

    Poimâine, 17 Septembrie, Marţi

    Timp Temperatura Precipitaţii Vânt Presiune Umiditate
    00:00 +6°C° 0 mm 1 m/s 577 mmHg 91%
    01:00 +6°C° 0 mm 1 m/s 576 mmHg 91%
    02:00 +6°C° 0 mm 1 m/s 576 mmHg 91%
    03:00 +6°C° 0 mm 1 m/s 576 mmHg 91%
    04:00 +5°C° 0 mm 1 m/s 575 mmHg 91%
    05:00 +6°C° 0 mm 1 m/s 576 mmHg 90%
    06:00 +7°C° 0 mm 1 m/s 576 mmHg 89%
    07:00 +7°C° 0 mm 1 m/s 577 mmHg 88%
    08:00 +9°C° 0.1 mm 1 m/s 578 mmHg 80%
    09:00 +11°C° 0.1 mm 1 m/s 579 mmHg 72%
    10:00 +13°C° 0.1 mm 2 m/s 580 mmHg 63%
    11:00 +14°C° 0.1 mm 2 m/s 580 mmHg 61%
    12:00 +14°C° 0.1 mm 2 m/s 580 mmHg 59%
    13:00 +15°C° 0.1 mm 2 m/s 580 mmHg 57%
    14:00 +14°C° 0.1 mm 2 m/s 579 mmHg 62%
    15:00 +14°C° 0.1 mm 2 m/s 579 mmHg 66%
    16:00 +12°C° 0.1 mm 3 m/s 578 mmHg 70%
    17:00 +10°C° 0 mm 2 m/s 578 mmHg 78%
    18:00 +8°C° 0 mm 2 m/s 577 mmHg 86%
    19:00 +7°C° 0 mm 2 m/s 576 mmHg 94%
    20:00 +7°C° 0 mm 1 m/s 576 mmHg 95%
    21:00 +7°C° 0 mm 1 m/s 576 mmHg 95%
    22:00 +7°C° 0 mm 1 m/s 576 mmHg 95%
    23:00 +6°C° 0 mm 1 m/s 576 mmHg 95%

    18 Septembrie, Miercuri

    Timp Temperatura Precipitaţii Vânt Presiune Umiditate
    00:00 +6°C° 0 mm 1 m/s 576 mmHg 95%
    01:00 +5°C° 0 mm 1 m/s 575 mmHg 95%
    02:00 +5°C° 0 mm 1 m/s 575 mmHg 94%
    03:00 +3°C° 0 mm 0 m/s 575 mmHg 94%
    04:00 +2°C° 0 mm 0 m/s 574 mmHg 93%
    05:00 +3°C° 0 mm 0 m/s 575 mmHg 92%
    06:00 +3°C° 0 mm 0 m/s 575 mmHg 91%
    07:00 +4°C° 0 mm 0 m/s 575 mmHg 89%
    08:00 +6°C° 0 mm 1 m/s 576 mmHg 84%
    09:00 +8°C° 0 mm 1 m/s 577 mmHg 78%
    10:00 +8°C° 0 mm 2 m/s 578 mmHg 72%
    11:00 +9°C° 0 mm 2 m/s 578 mmHg 67%
    12:00 +10°C° 0 mm 2 m/s 578 mmHg 62%
    13:00 +12°C° 0 mm 2 m/s 579 mmHg 56%
    14:00 +12°C° 0 mm 2 m/s 579 mmHg 59%
    15:00 +12°C° 0 mm 2 m/s 578 mmHg 63%
    16:00 +10°C° 0 mm 2 m/s 578 mmHg 66%
    17:00 +8°C° 0 mm 2 m/s 577 mmHg 75%
    18:00 +7°C° 0 mm 2 m/s 577 mmHg 83%
    19:00 +5°C° 0 mm 2 m/s 576 mmHg 92%
    20:00 +6°C° 0 mm 1 m/s 576 mmHg 93%
    21:00 +5°C° 0 mm 1 m/s 576 mmHg 93%
    22:00 +5°C° 0 mm 1 m/s 576 mmHg 93%
    23:00 +4°C° 0 mm 1 m/s 576 mmHg 93%

    19 Septembrie, Joi

    Timp Temperatura Precipitaţii Vânt Presiune Umiditate
    00:00 +4°C° 0 mm 1 m/s 576 mmHg 92%
    01:00 +2°C° 0 mm 0 m/s 576 mmHg 91%
    02:00 +2°C° 0 mm 0 m/s 575 mmHg 92%
    03:00 +1°C° 0 mm 0 m/s 575 mmHg 93%
    04:00 0°C° 0 mm 0 m/s 574 mmHg 94%
    05:00 +2°C° 0 mm 1 m/s 575 mmHg 93%
    06:00 +2°C° 0 mm 1 m/s 575 mmHg 91%
    07:00 +3°C° 0 mm 1 m/s 575 mmHg 90%
    08:00 +4°C° 0 mm 1 m/s 576 mmHg 83%
    09:00 +4°C° 0 mm 2 m/s 577 mmHg 76%
    10:00 +5°C° 0 mm 2 m/s 578 mmHg 69%
    11:00 +6°C° 0 mm 2 m/s 578 mmHg 65%
    12:00 +7°C° 0 mm 2 m/s 579 mmHg 61%
    13:00 +8°C° 0 mm 2 m/s 579 mmHg 57%
    14:00 +8°C° 0 mm 3 m/s 579 mmHg 58%
    15:00 +7°C° 0 mm 3 m/s 578 mmHg 60%
    16:00 +7°C° 0 mm 3 m/s 578 mmHg 62%
    17:00 +5°C° 0 mm 2 m/s 577 mmHg 71%
    18:00 +3°C° 0 mm 2 m/s 577 mmHg 80%
    19:00 +1°C° 0 mm 2 m/s 576 mmHg 90%
    20:00 -1°C° 0 mm 2 m/s 576 mmHg 91%
    21:00 +1°C° 0 mm 1 m/s 576 mmHg 92%
    22:00 0°C° 0 mm 1 m/s 577 mmHg 93%
    23:00 0°C° 0 mm 1 m/s 576 mmHg 91%

    20 Septembrie, Vineri

    Timp Temperatura Precipitaţii Vânt Presiune Umiditate
    00:00 -1°C° 0 mm 1 m/s 576 mmHg 90%
    01:00 -1°C° 0 mm 1 m/s 576 mmHg 88%
    02:00 -1°C° 0 mm 1 m/s 576 mmHg 84%
    03:00 -1°C° 0 mm 1 m/s 576 mmHg 80%
    04:00 -2°C° 0 mm 1 m/s 576 mmHg 76%
    05:00 -1°C° 0 mm 1 m/s 576 mmHg 69%
    06:00 0°C° 0 mm 1 m/s 577 mmHg 63%
    07:00 +1°C° 0 mm 1 m/s 577 mmHg 56%
    08:00 +3°C° 0 mm 1 m/s 579 mmHg 46%
    09:00 +6°C° 0 mm 1 m/s 580 mmHg 36%
    10:00 +7°C° 0 mm 2 m/s 581 mmHg 25%
    11:00 +8°C° 0 mm 2 m/s 581 mmHg 26%
    12:00 +9°C° 0 mm 2 m/s 581 mmHg 27%
    13:00 +10°C° 0 mm 2 m/s 582 mmHg 28%
    14:00 +9°C° 0 mm 2 m/s 581 mmHg 31%
    15:00 +9°C° 0 mm 2 m/s 581 mmHg 35%
    16:00 +9°C° 0 mm 2 m/s 581 mmHg 38%
    17:00 +7°C° 0 mm 1 m/s 579 mmHg 51%
    18:00 +4°C° 0 mm 1 m/s 578 mmHg 64%
    19:00 +1°C° 0 mm 1 m/s 577 mmHg 77%
    20:00 +1°C° 0 mm 1 m/s 577 mmHg 77%
    21:00 0°C° 0 mm 1 m/s 577 mmHg 76%
    22:00 0°C° 0 mm 1 m/s 577 mmHg 75%
    23:00 0°C° 0 mm 1 m/s 577 mmHg 77%
    Arată mai mult